RH
10 11 12 12 12 12 11 11 11 12 14 17 20 24 28 32 33 33 33 31 31 32 31 29 28 28 26 18 17 20 20 25 25 26 25 24 26 30 30 29 30 30 27 29 30
11 12 12 13 14 13 12 11 11 11 11 17 18 23 27 30 31 32 29 28 28 27 27 27 31 29 19 18 19 15 18 21 22 23 23 28 28 27 29 29 29 26 26 26 27
15 13 12 13 14 14 13 12 12 11 12 12 18 19 24 27 28 29 29 30 29 28 28 30 30 29 22 16 18 16 16 17 19 23 27 30 27 28 27 27 26 24 25 24 24
12 12 13 13 13 16 15 12 13 12 12 12 12 19 18 21 22 26 26 28 30 30 29 29 27 24 20 13 14 15 16 20 22 22 24 22 21 23 22 22 22 23 23 22 22
11 12 11 12 13 17 16 14 14 14 13 12 12 12 14 15 14 19 20 20 21 23 20 18 14 13 13 14 15 17 16 18 20 20 21 20 20 21 20 20 20 22 22 22 25
11 12 12 12 15 16 16 15 16 16 16 16 15 14 15 14 12 13 14 14 14 14 14 14 13 13 13 14 15 18 17 20 25 25 25 23 21 22 20 20 21 22 22 23 24
12 12 14 15 16 16 16 16 17 16 16 17 16 16 15 16 15 16 16 16 15 14 13 14 14 15 14 15 18 20 24 27 29 28 27 24 23 22 21 21 21 23 23 24 27
12 14 15 16 15 16 16 18 17 18 19 19 19 18 18 17 16 15 14 14 14 14 14 14 14 19 21 21 24 25 25 23 28 24 25 24 21 21 20 21 22 24 24 25 27
13 14 14 14 15 17 19 20 20 20 20 19 19 17 17 16 15 14 14 16 15 15 16 14 16 18 17 21 27 25 23 21 19 19 22 22 20 21 22 21 23 24 25 26 29
13 14 14 15 17 18 19 20 19 19 18 17 16 14 14 14 13 13 14 15 16 17 18 16 18 14 13 14 17 18 18 18 20 20 20 22 20 22 22 22 23 24 27 30 32
13 14 15 16 17 16 17 16 15 16 13 14 13 13 13 14 14 14 15 16 17 17 19 17 13 12 12 10 11 12 15 18 20 23 24 22 21 23 22 22 24 28 35 35 34
12 15 15 15 16 16 17 18 16 15 14 13 13 14 14 16 16 17 18 20 18 18 20 18 15 13 11 12 13 13 15 20 22 23 25 24 19 20 21 22 26 32 41 42 39
12 15 15 16 17 16 16 18 15 15 16 16 15 14 15 16 17 17 18 18 19 17 17 17 14 14 12 14 16 15 17 22 25 27 26 25 19 20 22 22 26 31 37 41 40
13 15 17 17 15 16 16 17 18 18 18 18 18 18 17 17 17 17 16 18 17 17 17 17 16 14 12 16 17 16 20 25 26 28 29 29 30 21 22 23 25 32 38 38 40
14 16 17 16 21 18 20 21 22 22 23 18 19 18 19 18 17 17 16 17 17 17 20 18 16 14 15 18 18 20 24 25 28 29 30 31 37 23 23 26 30 36 41 40 39
16 18 17 19 21 21 21 27 27 28 24 19 19 18 18 19 18 18 18 18 20 24 19 19 19 13 15 19 19 20 24 25 27 30 37 34 34 25 24 27 32 39 43 41 39
17 19 19 18 21 24 24 24 25 32 28 20 19 19 19 19 20 20 19 18 18 19 19 20 20 16 15 20 20 23 25 27 34 38 36 32 35 24 25 28 34 39 40 40 38
18 20 20 20 22 24 26 25 29 29 23 20 20 20 21 20 21 21 21 20 18 17 17 16 14 18 16 20 23 24 27 28 37 44 37 33 34 24 29 32 38 39 39 40 42
20 21 21 21 24 25 26 30 28 25 23 20 21 22 23 24 25 24 21 20 19 17 15 15 15 16 18 20 24 26 28 30 32 34 40 32 28 29 32 36 38 39 41 42 45
21 22 20 22 26 29 27 30 33 28 22 20 22 27 30 27 26 23 21 22 19 17 16 16 17 15 18 20 23 27 29 30 32 40 47 36 35 32 34 38 39 41 43 45 47
25 24 19 24 29 27 26 30 33 24 22 21 25 26 28 27 24 23 23 22 19 18 17 17 18 18 20 21 22 26 29 30 32 34 40 52 36 33 37 42 42 44 48 49 49
25 23 20 25 27 24 23 26 26 21 21 24 27 26 26 25 23 23 21 19 19 20 20 20 21 20 22 22 23 26 29 31 33 36 37 38 35 36 38 39 43 47 52 52 50
24 21 21 25 25 23 23 30 25 21 23 24 25 25 25 24 23 22 22 21 21 22 23 24 24 24 25 24 27 28 30 32 35 38 38 39 36 41 45 43 45 51 54 53 50
28 26 20 23 23 22 25 28 23 22 24 25 25 25 24 23 23 23 22 23 24 26 26 27 26 26 27 28 30 30 30 34 36 40 37 37 38 43 47 47 49 53 55 54 48
31 28 23 21 20 21 27 25 23 23 24 24 24 24 24 23 22 22 22 23 24 26 28 29 28 26 26 29 28 26 28 32 35 36 39 34 40 42 53 53 52 55 57 56 39
33 32 26 23 23 23 28 23 22 24 24 23 22 24 25 24 22 21 23 23 24 25 26 28 29 28 22 21 23 24 20 24 30 35 36 38 36 44 50 56 57 57 59 49 26
32 37 35 27 25 27 27 24 23 22 23 21 21 21 23 24 23 23 22 22 23 24 25 28 29 30 27 26 24 18 15 17 22 26 32 34 37 43 46 54 58 59 57 35 17
Wind_Speed
16 17 16 15 15 14 14 15 16 17 18 18 21 21 21 20 19 17 15 15 13 6 2 4 3 7 9 4 10 6 14 14 11 8 6 4 3 1 2 3 5 6 8 9 10
16 16 15 14 14 13 13 14 15 15 16 16 17 19 19 18 17 15 14 15 13 10 5 4 4 7 5 5 5 5 10 10 8 6 5 2 1 2 4 5 6 8 9 11 11
14 13 13 13 13 12 12 13 14 15 15 15 15 16 15 16 15 14 12 11 10 9 7 4 7 9 9 6 2 4 7 8 7 7 5 2 3 4 5 7 9 9 10 11 11
13 12 12 12 12 12 12 11 13 14 13 13 13 13 13 12 9 12 11 12 11 11 11 10 9 9 9 2 2 5 7 8 5 3 2 2 4 5 7 9 10 10 11 12 12
12 12 12 11 11 11 11 11 11 12 11 11 11 11 11 8 4 9 9 9 10 11 11 9 7 5 4 3 4 4 5 5 4 2 2 3 5 7 7 10 10 12 12 13 14
11 11 12 11 10 10 11 12 11 9 8 8 8 9 6 2 6 7 7 7 7 6 4 2 2 3 3 5 4 7 5 4 1 1 3 6 8 9 10 11 11 12 12 13 15
10 10 11 11 10 10 11 11 9 8 8 8 8 10 8 6 5 6 6 5 4 2 2 2 4 1 4 4 5 4 4 3 4 5 7 10 9 10 13 12 12 12 13 14 17
9 9 9 10 10 10 9 8 8 7 7 6 4 5 3 7 5 5 5 3 1 2 4 3 2 3 0 1 3 2 2 4 6 9 10 12 12 14 14 15 13 12 13 17 21
8 9 8 10 10 10 10 9 8 7 6 5 4 6 6 6 5 5 5 3 3 3 3 2 2 2 2 0 2 3 4 6 8 9 12 13 16 16 17 16 14 13 16 20 23
8 9 9 11 11 10 9 10 10 10 9 8 7 5 8 7 6 5 4 3 3 3 2 0 1 2 2 2 3 4 6 6 9 12 17 19 17 19 18 16 13 14 18 21 23
8 8 10 11 10 10 12 12 10 8 8 4 7 6 9 7 5 3 1 1 0 2 1 2 2 2 2 3 4 6 7 10 12 15 19 22 21 19 20 13 11 15 21 24 26
8 9 10 11 11 11 10 9 5 8 8 9 9 7 6 4 3 2 2 3 4 4 4 3 3 2 3 5 7 7 8 10 14 17 24 22 21 20 14 7 9 14 24 24 25
9 9 11 12 13 10 8 7 10 8 7 6 5 5 4 3 2 2 3 3 5 6 5 4 3 3 3 7 9 8 7 13 18 23 24 17 19 5 13 6 12 17 24 25 25
9 10 13 15 11 8 10 11 9 6 3 4 3 3 4 3 3 3 4 5 5 5 4 4 3 3 3 8 8 7 11 17 21 18 8 14 9 19 6 11 14 21 27 27 26
11 12 16 14 9 12 10 10 5 3 2 3 6 4 5 6 4 3 4 4 5 4 4 5 3 2 4 8 8 6 13 21 17 10 13 10 6 8 15 10 14 21 26 26 25
13 14 17 13 13 13 11 5 4 3 3 4 5 4 4 5 5 5 4 5 4 5 5 3 2 3 4 9 8 10 15 20 12 7 4 4 3 13 8 12 16 24 28 26 24
15 16 17 14 15 13 8 5 4 4 3 4 5 6 5 5 5 5 4 3 4 5 5 5 4 4 4 10 8 10 13 6 5 3 5 8 10 9 15 17 20 27 28 26 24
16 17 17 14 17 12 8 5 6 5 7 5 6 6 5 5 5 4 5 4 4 5 6 3 3 4 4 9 7 7 7 3 4 3 8 20 9 7 22 16 24 25 28 25 29
18 18 19 17 17 12 9 8 4 5 7 7 7 6 5 5 5 4 3 3 4 5 4 4 3 5 6 9 8 7 7 7 6 9 4 6 11 23 16 21 26 26 30 30 31
19 20 19 20 16 13 11 12 9 9 9 9 8 6 5 5 4 3 3 3 3 5 4 4 6 5 7 9 7 7 9 6 4 3 5 9 14 13 20 24 29 33 33 34 31
19 20 20 21 17 15 15 14 13 12 10 10 9 7 7 5 6 4 3 3 4 5 6 7 6 5 8 5 9 9 10 7 6 4 3 4 13 18 20 32 33 35 36 35 31
21 21 21 21 18 17 17 16 13 11 12 10 9 8 6 5 5 4 3 3 4 6 7 8 7 9 10 9 8 9 12 11 5 4 9 7 15 13 35 35 37 37 37 36 33
22 22 21 22 22 19 16 14 13 13 12 10 8 8 6 5 4 4 3 4 5 6 5 7 4 8 6 5 5 11 16 17 15 16 15 4 17 40 37 39 36 36 37 36 32
21 20 25 23 23 20 16 15 14 14 13 11 10 9 7 6 6 3 4 4 5 7 8 9 8 10 10 14 19 22 19 19 17 12 14 24 37 31 35 33 34 36 36 35 31
22 20 21 15 24 21 16 13 15 15 15 13 12 11 9 7 7 7 7 8 8 7 9 9 12 15 15 20 22 20 19 18 22 23 25 32 35 32 33 33 34 36 36 32 30
24 22 20 21 17 22 19 17 14 16 15 15 14 12 12 10 10 7 8 10 10 10 10 13 11 20 25 12 16 26 18 17 21 23 29 30 38 28 33 34 33 34 33 31 29
26 24 23 19 24 20 22 19 15 16 16 15 13 14 14 13 12 12 13 13 14 15 15 17 14 16 11 15 26 13 11 15 18 22 27 33 30 33 34 35 32 32 30 28 28
Wind_Direction
129 128 128 122 117 116 118 117 117 112 120 125 131 133 136 140 143 155 167 174 173 161 173 217 342 346 343 33 86 120 142 141 144 156 163 182 190 256 303 308 311 310 306 313 311
134 135 131 125 123 121 120 117 115 120 121 133 132 138 140 139 146 157 164 179 192 202 217 274 321 324 348 38 71 107 140 146 150 151 141 151 228 281 316 313 300 299 307 307 311
137 138 138 135 129 125 121 117 121 121 124 129 139 140 142 149 153 152 166 177 186 198 214 239 272 298 318 341 93 117 139 139 148 149 144 179 278 293 300 296 290 297 299 305 305
137 139 142 141 137 131 126 124 126 124 128 131 135 147 149 156 157 164 174 187 195 207 222 231 247 270 284 275 138 141 140 136 144 156 164 276 294 300 301 296 298 294 298 298 297
129 131 132 141 138 131 135 138 135 132 131 129 135 143 155 161 207 178 195 201 206 219 234 247 249 248 231 188 157 142 150 146 156 164 241 300 310 310 305 300 297 298 297 296 299
130 125 124 134 129 139 144 145 143 138 138 142 141 154 174 136 164 184 210 216 216 215 210 241 216 214 191 171 178 158 161 139 110 336 307 317 321 314 309 301 304 306 302 306 308
124 125 123 129 137 147 150 148 149 147 141 139 142 140 155 188 169 172 199 218 218 198 150 133 139 172 145 153 151 165 192 230 290 308 317 327 324 312 314 309 307 311 313 313 312
126 125 127 141 148 154 153 147 149 141 140 134 153 164 179 168 195 186 197 208 225 133 109 140 179 108 7 154 167 175 264 293 310 310 316 316 315 315 312 311 314 316 320 323 326
136 130 135 136 137 148 145 143 141 132 131 129 145 157 153 170 175 152 143 115 125 118 122 150 118 18 326 291 212 247 293 297 310 312 310 308 310 306 307 310 317 322 328 328 325
146 140 138 136 139 149 146 143 130 120 122 127 139 132 143 152 150 140 130 127 122 108 110 42 350 323 330 315 305 307 308 308 316 316 311 308 315 308 308 315 323 335 331 328 323
156 149 147 149 144 148 146 133 126 120 137 156 152 146 149 144 144 143 136 110 298 313 290 312 309 332 1 355 337 321 317 317 318 314 310 313 311 305 308 312 324 343 342 331 321
169 159 157 154 145 150 149 136 144 133 124 135 138 146 160 153 148 204 245 279 282 279 294 305 308 343 356 349 342 330 321 323 320 315 312 312 309 303 304 311 336 339 351 336 320
179 169 159 154 146 156 164 146 138 137 128 133 150 163 177 186 221 252 267 271 274 279 285 287 301 332 348 343 340 329 319 321 315 316 311 314 314 307 320 312 335 336 335 331 314
186 176 163 158 158 171 164 152 152 155 149 181 182 188 201 206 240 251 262 278 283 289 287 290 307 328 340 340 333 327 324 323 317 316 309 316 294 312 330 327 326 337 334 320 310
195 181 170 168 172 165 167 160 182 189 328 217 209 215 223 225 255 266 265 280 290 285 293 294 300 305 341 338 331 325 329 325 321 311 307 310 276 308 314 337 336 338 334 322 309
197 192 180 177 176 174 179 210 238 276 257 208 195 208 215 224 242 266 270 273 288 283 301 283 300 304 321 342 329 322 330 322 321 315 293 302 301 294 292 333 336 337 335 327 312
198 193 191 191 184 184 200 227 250 242 265 220 207 214 232 239 243 253 269 291 291 299 279 289 269 296 287 337 327 328 336 329 340 354 250 301 297 282 303 326 328 330 331 327 319
200 196 196 200 189 198 215 230 243 271 245 224 214 219 236 239 254 260 261 276 302 311 305 295 284 264 301 329 314 322 356 26 285 278 294 297 240 317 320 325 329 326 329 326 328
206 203 203 200 196 213 230 235 253 294 247 230 211 220 238 248 255 261 251 265 296 333 322 312 281 270 287 322 324 326 336 328 264 282 296 261 279 306 334 331 330 331 332 330 330
209 207 202 198 206 220 238 243 257 277 252 218 210 237 243 255 252 249 246 252 309 324 323 311 300 272 287 310 310 300 317 320 307 324 298 278 286 282 327 331 335 335 333 333 330
209 211 207 201 214 229 245 250 268 265 240 221 228 253 247 255 248 247 250 275 303 319 317 310 282 289 298 303 308 310 309 307 301 254 226 300 292 318 336 338 336 334 332 331 328
212 217 209 210 221 236 248 251 268 248 219 232 244 240 249 239 241 237 256 279 304 316 315 308 291 293 293 297 300 304 304 302 280 263 245 250 283 328 330 327 330 329 329 328 327
218 218 214 217 230 241 252 258 254 226 219 233 231 234 238 240 233 240 280 288 297 307 308 312 301 314 300 293 311 316 319 311 304 288 266 238 299 324 330 325 323 326 327 326 325
217 222 221 224 233 243 249 254 235 225 229 230 234 237 235 239 235 251 274 288 298 302 299 304 292 286 271 297 299 297 305 303 290 271 287 287 316 344 331 324 322 324 324 324 323
217 223 224 230 235 239 244 243 233 233 231 234 237 234 236 241 244 250 260 276 289 291 293 297 299 296 297 300 292 295 297 288 282 288 277 316 317 335 330 324 320 321 321 322 321
218 219 226 232 243 229 238 237 237 234 237 240 238 237 239 242 247 259 262 271 280 277 281 294 293 303 308 295 298 305 299 280 281 282 291 308 319 323 325 326 320 319 319 319 319
221 223 231 236 231 233 234 237 240 238 239 244 242 242 240 245 252 258 264 266 270 277 281 282 287 303 297 309 312 299 333 318 307 310 308 306 320 325 324 327 322 318 317 318 319